Showing default

COSMOS 1997, 19788

Orbit data source: Space-Track

COSMOS 1997, 19788 is a payload satellite owned by UNKS (CIS) in LEO that was launched on Fri, 10 Feb 1989 UTC via a TSIKLON-3 launch vehicle from the Plesetsk Missile And Space Complex (PKMTR). Payload-class satellites include a variety of spacecraft equipped with specific instruments for various scientific and technological missions. These include communications satellites like Starlink; space stations such as the ISS; scientific satellites like the Hubble; Earth observation satellites from companies like Planet Labs, Umbra, and HawkEye 360; GPS; miniature CubeSats for education and research; and military/defense satellites.

Loading next visibility...
Identifier
19788, 1989-009D
Orbit
LEO
Country
Flag of CISCIS
Related business
Manufacturer
NPO PM
Mission
Defense Communications
Bus & Motor
STRELA-3, Unknown motor
Mass
225 kg wet, 225 kg dry
Launch date (UTC)
1989-02-10 (37 years ago)
Launch vehicle
TSIKLON-3
Launch site
Plesetsk Missile And Space Complex (PKMTR)
Object type
Payload
Rocket body
Debris
Shape & HBR
Cyl, 0.8 m
Radar Cross Section
1.257 m², Large (>1 m²)

Expand to show TLE details & history
Last TLE update: 1 day ago

TLE from 1 day ago
0 COSMOS 1997
1 19788U 89009D   25306.35508953  .00000039  00000-0  15285-3 0  9999
2 19788  82.6175 145.0573 0010029 135.5289  39.8385 12.63683398693850
Epoch: 2025-11-02T08:31Z
TLE epoch observation values (Epoch: 2025-11-02T08:31:19.735Z)
Latitude
4.43807°
Longitude
154.77972°
Altitude
1,404.052 km
Speed
7.161 km/s
True Right ascension
21h 37m 56s
True Declination
4° 24' 50"
Sunlit
Object was in daylight at epoch
Visualization orbit readout
Latitude
Unknown
Longitude
Unknown
Altitude
Unknown
Speed
Unknown
Apparent Right ascension
Unknown
Apparent Declination
Unknown
Sunlit
N/A
Visualization observer readout
Local Sidereal Time
06:51:18
Azimuth
Unknown
Elevation
Unknown
Doppler factor
Unknown
Orbital elements
Apogee altitude
1,412.901 km
Perigee altitude
1,397.289 km
Semi-major axis
7,783.232 km
Eccentricity
0.001
Inclination
82.6175°
RAAN
145.0573°
Arg. of periapsis
135.5289°
True anomaly
39.91219°
Mean anomaly
39.8385°
Eccentric anomaly
39.87534°
Mean motion
3.16084 °/min
Orbital period
113.89 mins
BSTAR
0.00015285
Loading maneuver chart data...
Computing Atmospheric mass density...
Loading historical data...
Loading historical data...
Loading historical data...
Loading historical data...
Loading historical data...
Loading historical data...
Loading historical data...

Documentation

Showing up to 5 results
|